Location: Cella
(44.7333°N, 10.5667°E)
Time: 19:37:22
(UTC+00:00)

Cosmos 2074 Rocket - Pass Details

Date: 03 March 2021
Orbit: 967 x 986 km, 82.9° (Epoch: 19 April)

Event Time Altitude Azimuth Distance (km) Brightness Sun altitude
Rises 17:32:46 0° 180° (S) 3,676 7.1 -5.2°
Reaches altitude 10° 17:35:16 10° 179° (S) 2,729 6.4 -5.6°
Maximum altitude 17:41:31 75° 95° (E) 1,015 4.0 -6.7°
Drops below altitude 10° 17:47:46 10° 11° (NNE) 2,735 6.2 -7.8°
Sets 17:50:17 0° 10° (N) 3,683 6.9 -8.3°
